Weather History for Redmond, OR

Change the Weather History Date:

Thursday, July 11, 2013

  Actual Average Record
Temperature  
Mean Temperature 66 °F 65 °F  
Max Temperature 84 °F 85 °F 103 °F (2002)
Min Temperature 47 °F 46 °F 33 °F (1981)
Degree Days  
Heating Degree Days 0 3  
Month to date heating degree days 8 37  
Since 1 June heating degree days 193 254  
Since 1 July heating degree days 8 37  
Cooling Degree Days 1 3  
Month to date cooling degree days 63 26  
Year to date cooling degree days 111 55  
Since 1 June cooling degree days 102 50  
Growing Degree Days 16 (Base 50)    
Moisture  
Dew Point 36 °F    
Average Humidity 39    
Maximum Humidity 61    
Minimum Humidity 17    
Precipitation  
Precipitation 0.00 in 0.02 in 0.75 in (1956)
Month to date precipitation 0.00 0.20  
Year to date precipitation 1.92 4.88  
Sea Level Pressure  
Sea Level Pressure 29.90 in    
Wind  
Wind Speed 6 mph (NNW)    
Max Wind Speed 20 mph    
Max Gust Speed 26 mph    
Visibility 10 miles    
Events      
T = Trace of Precipitation, MM = Missing Value Source: NWS Daily Summary

Daily Weather History Graph

Daily Weather History Graph

Search for Another Location

Airport:

Trip Planner

Search our weather history database for the weather conditions in past years. The results will help you decide how hot, cold, wet, or windy it might be!

Date:

Astronomy

Jul. 11, 2013 Rise Set
Actual Time 5:31 AM PDT 8:48 PM PDT
Civil Twilight 4:56 AM PDT 9:23 PM PDT
Nautical Twilight 4:09 AM PDT 10:09 PM PDT
Astronomical Twilight 3:12 AM PDT 11:06 PM PDT
Moon 9:04 AM PDT (7/11) 10:20 PM PDT (7/11)
Length of Visible Light 16h 27m
Length of Day
15h 16m
Waxing Crescent, 11% of the Moon is Illuminated
Jul 11
Waxing Crescent
Jul 15
First Quarter
Jul 22
Full
Jul 29
Last Quarter
Aug 6
New

Hourly Weather History & Observations

Time (PDT) Temp. Dew Point Humidity Pressure Visibility Wind Dir Wind Speed Gust Speed Precip Events Conditions
12:56 AM 55.9 °F 37.9 °F 51% 29.90 in 10.0 mi Calm Calm - N/A   Clear
1:56 AM 54.0 °F 39.0 °F 57% 29.90 in 10.0 mi Calm Calm - N/A   Clear
2:56 AM 51.1 °F 37.9 °F 61% 29.91 in 10.0 mi Calm Calm - N/A   Clear
3:56 AM 51.1 °F 37.9 °F 61% 29.92 in 10.0 mi Calm Calm - N/A   Clear
4:56 AM 50.0 °F 37.9 °F 63% 29.93 in 10.0 mi Calm Calm - N/A   Clear
5:56 AM 53.1 °F 39.9 °F 61% 29.94 in 10.0 mi West 3.5 mph - N/A   Clear
6:56 AM 61.0 °F 43.0 °F 52% 29.93 in 10.0 mi Calm Calm - N/A   Clear
7:56 AM 64.0 °F 42.1 °F 45% 29.93 in 10.0 mi West 3.5 mph - N/A   Clear
8:56 AM 68.0 °F 42.1 °F 39% 29.93 in 10.0 mi NW 4.6 mph - N/A   Clear
9:56 AM 72.0 °F 42.1 °F 34% 29.92 in 10.0 mi Variable 4.6 mph - N/A   Clear
10:56 AM 73.0 °F 41.0 °F 31% 29.91 in 10.0 mi Variable 5.8 mph - N/A   Clear
11:56 AM 75.0 °F 39.0 °F 27% 29.91 in 10.0 mi NW 8.1 mph - N/A   Clear
12:56 PM 78.1 °F 37.0 °F 23% 29.90 in 10.0 mi Variable 6.9 mph 18.4 mph N/A   Clear
1:56 PM 82.9 °F 37.0 °F 19% 29.88 in 10.0 mi NNW 10.4 mph 19.6 mph N/A   Clear
2:56 PM 81.0 °F 37.9 °F 21% 29.86 in 10.0 mi Variable 5.8 mph - N/A   Clear
3:56 PM 82.9 °F 37.9 °F 20% 29.85 in 10.0 mi NNW 15.0 mph 20.7 mph N/A   Clear
4:56 PM 81.0 °F 35.1 °F 19% 29.85 in 10.0 mi North 11.5 mph 23.0 mph N/A   Clear
5:56 PM 81.0 °F 33.1 °F 18% 29.84 in 10.0 mi NNW 12.7 mph 20.7 mph N/A   Clear
6:56 PM 78.1 °F 30.0 °F 17% 29.84 in 10.0 mi North 15.0 mph - N/A   Clear
7:56 PM 73.9 °F 33.1 °F 22% 29.86 in 10.0 mi North 10.4 mph - N/A   Clear
8:56 PM 69.1 °F 30.0 °F 23% 29.87 in 10.0 mi NNW 6.9 mph - N/A   Clear
9:56 PM 63.0 °F 28.9 °F 28% 29.90 in 10.0 mi NNE 3.5 mph - N/A   Clear
10:56 PM 60.1 °F 23.0 °F 24% 29.91 in 10.0 mi NNE 6.9 mph - N/A   Clear
11:56 PM 57.9 °F 28.0 °F 32% 29.91 in 10.0 mi NE 5.8 mph - N/A   Clear